Location: Unspecified
(44.0704°N, 88.6889°W)
Time: 15:53:00
(UTC+02:00)

Tiros 1 despin weight - Visible Passes

Search period start: 20 June 2019 00:00
Search period end: 30 June 2019 00:00
Orbit: 595 x 642 km, 48.2° (Epoch: 19 June)

Date Brightness Start Highest point End Pass type
(mag) Time Alt. Az. Time Alt. Az. Time Alt. Az.
20 Jun ? 07:47:21 33° E 07:47:21 33° E 07:50:08 10° ENE visible
20 Jun ? 09:24:21 19° W 09:27:24 62° NNW 09:31:47 10° ENE visible
20 Jun ? 11:05:03 10° WNW 11:09:22 50° N 11:13:41 10° E visible
21 Jun ? 08:02:24 76° SSE 08:02:26 76° SSE 08:06:51 10° ENE visible
21 Jun ? 09:39:51 10° W 09:44:11 51° N 09:48:30 10° ENE visible
21 Jun ? 11:21:47 10° WNW 11:26:09 59° NNE 11:30:32 10° E visible
22 Jun ? 06:40:14 19° E 06:40:14 19° E 06:41:43 10° E visible
22 Jun ? 08:17:12 34° W 08:19:05 74° NNW 08:23:31 10° ENE visible
22 Jun ? 09:56:42 10° WNW 10:01:00 48° N 10:05:18 10° ENE visible
23 Jun ? 06:54:33 56° SE 06:54:33 56° SE 06:58:34 10° ENE visible
23 Jun ? 08:31:29 10° W 08:35:50 56° NNW 08:40:11 10° ENE visible
23 Jun ? 10:13:28 10° WNW 10:17:49 53° N 10:22:09 10° E visible
24 Jun ? 05:30:01 24° SE 05:30:01 24° SE 05:33:13 10° E visible
24 Jun ? 07:06:25 10° WSW 07:10:48 90° NNW 07:15:15 10° ENE visible
24 Jun ? 08:48:19 10° W 08:52:38 49° N 08:56:56 10° ENE visible
24 Jun ? 10:30:10 10° WNW 10:34:35 66° NNE 10:38:59 10° E visible
25 Jun ? 05:41:47 10° SW 05:46:01 42° SE 05:50:14 10° ENE visible
25 Jun ? 07:23:03 10° W 07:27:30 65° NNW 07:31:54 10° ENE visible
25 Jun ? 09:05:08 10° WNW 09:09:27 49° N 09:13:46 10° E visible
25 Jun ? 10:46:50 10° WNW 10:51:16 87° SSW 10:55:41 10° ESE visible
26 Jun ? 04:18:35 10° S 04:21:33 17° SE 04:24:29 10° E visible
26 Jun ? 05:58:05 10° SW 06:02:33 71° SSE 06:06:59 10° ENE visible
26 Jun ? 07:39:54 10° W 07:44:16 52° N 07:48:36 10° ENE visible
26 Jun ? 09:21:53 10° WNW 09:26:15 57° NNE 09:30:36 10° E visible
26 Jun ? 11:03:32 10° WNW 11:07:51 54° SSW 11:12:09 10° SE visible
27 Jun ? 04:33:54 10° SSW 04:37:52 31° SE 04:41:49 10° E visible
27 Jun ? 06:14:42 10° WSW 06:19:11 77° NNW 06:23:38 10° ENE visible
27 Jun ? 07:56:45 10° WNW 08:01:05 48° N 08:05:24 10° ENE visible
27 Jun ? 09:38:33 10° WNW 09:42:59 76° NNE 09:47:25 10° ESE visible
27 Jun ? 11:20:23 10° W 11:24:18 31° SW 11:28:12 10° SSE visible
28 Jun ? 04:49:56 10° SW 04:54:20 54° SSE 04:58:41 10° ENE visible
28 Jun ? 06:31:29 10° W 06:35:55 58° NNW 06:40:18 10° ENE visible
28 Jun ? 08:13:33 10° WNW 08:17:54 52° N 08:22:14 10° E visible
28 Jun ? 09:55:13 10° WNW 09:59:38 73° SSW 10:04:02 10° ESE visible
28 Jun ? 11:37:43 10° W 11:40:38 17° SW 11:43:33 10° S visible
29 Jun ? 05:06:23 10° WSW 05:10:55 86° SSE 05:15:23 10° ENE visible
29 Jun ? 06:48:21 10° W 06:52:43 50° N 06:57:03 10° ENE visible
29 Jun ? 08:30:15 10° WNW 08:34:41 64° NNE 08:39:04 10° E visible
29 Jun ? 10:11:58 10° WNW 10:16:10 43° SW 10:20:20 10° SE visible
